Simultaneous Nadir Overpasses (SNOs) Predictions

Prediction of SNOs between NPP and TERRA Satellite Orbit:

Table of predicted SNOs for the next 14.0 days since TLE Epoch: 2/5/2022
Index Date (NPP) Time (NPP) Lat,Lon (NPP) SZA (NPP ) Date (TERRA) Time (TERRA) Lat,Lon (TERRA) SZA (TERRA ) Distance(km) Time Diff (sec)
1 02/06/2022 21:52:02 -69.19, 29.66 95.42 02/06/2022 21:52:33 -69.19, 29.61 95.42 2.14 31
2 02/06/2022 22:42:46 69.07,-162.87 84.45 02/06/2022 22:42:00 69.08,-162.89 84.47 1.17 46
3 02/09/2022 13:18:16 69.27, -22.01 83.84 02/09/2022 13:19:28 69.27, -22.04 83.82 1.44 72
4 02/09/2022 14:08:58 -69.18, 145.44 96.27 02/09/2022 14:08:58 -69.16, 145.45 96.30 2.48 0
5 02/09/2022 14:59:39 68.90, -46.87 83.43 02/09/2022 14:58:27 68.93, -47.19 83.48 13.29 72
6 02/12/2022 05:35:11 69.22, 93.83 82.91 02/12/2022 05:35:53 69.22, 93.78 82.90 2.22 42
7 02/12/2022 06:25:53 -69.12, -98.72 97.21 02/12/2022 06:25:23 -69.11, -98.73 97.22 1.26 30
8 02/14/2022 21:01:32 -69.86, 41.36 97.31 02/14/2022 21:02:41 -69.77, 42.75 97.47 54.32 69
9 02/14/2022 21:52:06 69.22,-150.41 82.01 02/14/2022 21:52:16 69.21,-150.35 81.99 2.69 10
10 02/14/2022 22:42:47 -69.07, 17.12 98.17 02/14/2022 22:41:47 -69.05, 17.08 98.18 2.94 60
11 02/17/2022 13:18:17 -69.29, 157.96 98.85 02/17/2022 13:19:13 -69.31, 158.01 98.84 3.14 56
12 02/17/2022 14:09:00 69.13, -34.51 80.98 02/17/2022 14:08:41 69.13, -34.57 80.98 2.45 19
13 02/17/2022 14:59:31 -68.44, 133.73 99.76 02/17/2022 14:58:21 -68.47, 132.24 99.66 61.04 70



Historial Predications of SNOs between NPP and TERRA
